Weather in Pobedinskoye

Russia / Chechen Republic     43°24′05″N   45°26′18″E
temp.,
°C
wind,
m/s
gust,
m/s
humid.,
%
clouds,
%
prec.,
mm/h
press.,
hPa
HPBL,
m
24 may, tue
tue2400:00+13wnw5997100 7.3 1006450
03:00+12wnw5995100 9.9 1007383
06:00+12wnw4894100 2.8 1009395
09:00+13w5889100 5.5 1010518
12:00+15wnw5679100 1.5 1010781
15:00+14w3582100 2.0 1011412
18:00+14wsw2382100 0.1 101273
21:00+13w3689100 0.3 1014211
25 may, wed
wed2500:00+12wnw4891100 0.1 1015330
03:00+11wnw5993100 1.1 1016412
06:00+11w5991100 1.4 1017455
09:00+12w4889100 3.4 1019497
12:00+16w567191 1.6 10191075
15:00+18w345990 3.3 10191443
18:00+17nw236817 0.3 1020152
21:00+12wsw33805 0.3 102226
26 may, thu
thu2600:00+11wsw22825 0.0 102113
03:00+10sw22838 0.0 102212
06:00+13sw117788 0.0 102262
09:00+16nw116487 0.0 1022433
12:00+19nne32465 0.0 10211366
15:00+21ne21429 0.0 10201707
18:00+20ene22545 0.0 1020161
21:00+15sse22600 0.0 102018
27 may, fri
fri2700:00+13ssw116981 0.0 102011
03:00+12ssw2275100 0.0 102012
06:00+14ssw227496 0.0 102083
09:00+20ese12505 0.0 1019565
12:00+23e22415 0.0 10181405
15:00+24ne21400 0.0 10171662
18:00+23e12521 0.0 1017107
21:00+17s22625 0.0 101914
28 may, sat
sat2800:00+16sw22682 0.0 101811
03:00+15w11720 0.0 101811
06:00+17sw11700 0.0 101763
09:00+22ene23542 0.0 1016693
12:00+25e55460 0.0 10141350
15:00+26ene54460 0.0 10131477
18:00+22ene46590 0.0 1013283
21:00+16e22790 0.0 101531